Zurück zum Katalog

STARLINK-1553

AktivKommunikationVLEO
NORAD 46348·PAYLOAD·🇺🇸 United States

Gestartet Sep 3, 2020 von Cape Canaveral Space Force Station

Loading…

Nächste Überflüge (nächste 24 Stunden)

TLE

AktuellSource: CelesTrak SupGP

Epoche: Sep 14, 2026, 21:16 UTC

1 46348C 20062AA  26257.88659722 -.00002429  00000+0 -48102-4 0  2578
2 46348  53.0317 130.2067 0003814  76.7350 355.3391 15.46468170    11

Verfolge STARLINK-1553 in Echtzeit mit AllMySat

Download on the App Store